| time (UTC) | temp C | wind direction | speed KPH | gust KPH | rain 1hr cm | rain 24hr cm | rain mn cm | humidity % | barometer mb |
| 20260903233506 | 8 | 347 | 8.0 | 17.7 | 0.00 | 0.00 | 0.00 | 80 | 1020.4 |
| 20260903233010 | 8 | 16 | 9.7 | 20.9 | 0.00 | 0.00 | 0.00 | 81 | 1020.4 |
| 20260903232508 | 8 | 355 | 16.1 | 22.5 | 0.00 | 0.00 | 0.00 | 80 | 1020.6 |
| 20260903232008 | 8 | 358 | 14.5 | 22.5 | 0.00 | 0.00 | 0.00 | 80 | 1020.8 |
| 20260903231513 | 8 | 330 | 12.9 | 20.9 | 0.00 | 0.00 | 0.00 | 79 | 1020.9 |
| 20260903231012 | 8 | 339 | 12.9 | 17.7 | 0.00 | 0.00 | 0.00 | 80 | 1020.9 |
| 20260903230509 | 8 | 325 | 11.3 | 19.3 | 0.00 | 0.00 | 0.00 | 79 | 1020.6 |
| 20260903230034 | 8 | 345 | 12.9 | 24.1 | 0.00 | 0.00 | 0.00 | 80 | 1020.7 |
| 20260903225514 | 7 | 337 | 14.5 | 24.1 | 0.00 | 0.00 | 0.00 | 79 | 1020.7 |
| 20260903225009 | 7 | 353 | 14.5 | 24.1 | 0.00 | 0.00 | 0.00 | 79 | 1020.9 |
| 20260903224533 | 7 | 342 | 14.5 | 25.7 | 0.00 | 0.00 | 0.00 | 78 | 1021.0 |
| 20260903224014 | 7 | 314 | 14.5 | 25.7 | 0.00 | 0.00 | 0.00 | 78 | 1021.2 |
| 20260903223506 | 7 | 350 | 14.5 | 24.1 | 0.00 | 0.00 | 0.00 | 78 | 1021.0 |
| 20260903223029 | 7 | 358 | 14.5 | 20.9 | 0.00 | 0.00 | 0.00 | 79 | 1021.0 |
| 20260903222512 | 7 | 317 | 9.7 | 16.1 | 0.00 | 0.00 | 0.00 | 80 | 1020.8 |
| 20260903222021 | 7 | 334 | 8.0 | 14.5 | 0.00 | 0.00 | 0.00 | 80 | 1020.6 |
| 20260903221512 | 7 | 345 | 6.4 | 9.7 | 0.00 | 0.00 | 0.00 | 81 | 1020.5 |
| 20260903221009 | 7 | 348 | 3.2 | 8.0 | 0.00 | 0.00 | 0.00 | 81 | 1020.4 |
| 20260903220508 | 6 | 358 | 3.2 | 9.7 | 0.00 | 0.00 | 0.00 | 81 | 1020.3 |
| 20260903220024 | 6 | 355 | 1.6 | 11.3 | 0.00 | 0.00 | 0.00 | 81 | 1020.3 |
| 20260903215509 | 6 | 2 | 6.4 | 11.3 | 0.00 | 0.00 | 0.00 | 81 | 1020.3 |
| 20260903215014 | 5 | 3 | 4.8 | 9.7 | 0.00 | 0.00 | 0.00 | 82 | 1020.3 |
| 20260903214529 | 5 | 341 | 0.0 | 6.4 | 0.00 | 0.00 | 0.00 | 81 | 1020.2 |
| 20260903214017 | 5 | 341 | 3.2 | 6.4 | 0.00 | 0.00 | 0.00 | 81 | 1020.2 |
| 20260903213514 | 4 | 331 | 1.6 | 4.8 | 0.00 | 0.00 | 0.00 | 81 | 1020.1 |
| 20260903213014 | 4 | 308 | 0.0 | 4.8 | 0.00 | 0.00 | 0.00 | 80 | 1020.0 |
| 20260903212517 | 4 | 308 | 1.6 | 6.4 | 0.00 | 0.00 | 0.00 | 79 | 1020.0 |
| 20260903212012 | 5 | 317 | 1.6 | 8.0 | 0.00 | 0.00 | 0.00 | 78 | 1019.9 |
| 20260903211534 | 5 | 343 | 3.2 | 8.0 | 0.00 | 0.00 | 0.00 | 78 | 1019.7 |
| 20260903211014 | 5 | 7 | 0.0 | 8.0 | 0.00 | 0.00 | 0.00 | 77 | 1019.6 |
| 20260903210510 | 5 | 351 | 3.2 | 8.0 | 0.00 | 0.00 | 0.00 | 77 | 1019.5 |
| 20260903210041 | 5 | 10 | 0.0 | 8.0 | 0.00 | 0.00 | 0.00 | 77 | 1019.4 |
| 20260903205508 | 6 | 360 | 1.6 | 8.0 | 0.00 | 0.00 | 0.00 | 77 | 1019.5 |
| 20260903205018 | 5 | 38 | 1.6 | 6.4 | 0.00 | 0.00 | 0.00 | 78 | 1019.4 |
| 20260903204520 | 5 | 47 | 3.2 | 6.4 | 0.00 | 0.00 | 0.00 | 79 | 1019.3 |
| 20260903204015 | 5 | 33 | 1.6 | 4.8 | 0.00 | 0.00 | 0.00 | 80 | 1019.3 |
| 20260903203515 | 5 | 35 | 0.0 | 3.2 | 0.00 | 0.00 | 0.00 | 80 | 1019.3 |
| 20260903203025 | 4 | 35 | 0.0 | 3.2 | 0.00 | 0.00 | 0.00 | 80 | 1019.2 |
| 20260903202514 | 4 | 9 | 0.0 | 3.2 | 0.00 | 0.00 | 0.00 | 78 | 1019.3 |
| 20260903202004 | 4 | 9 | 0.0 | 3.2 | 0.00 | 0.00 | 0.00 | 79 | 1019.4 |
| 20260903201507 | 4 | 9 | 0.0 | 4.8 | 0.00 | 0.00 | 0.00 | 79 | 1019.1 |
| 20260903201007 | 4 | 9 | 1.6 | 4.8 | 0.00 | 0.00 | 0.00 | 78 | 1019.4 |
| 20260903200507 | 4 | 27 | 0.0 | 0.0 | 0.00 | 0.00 | 0.00 | 78 | 1019.4 |
| 20260903200008 | 4 | 27 | 0.0 | 0.0 | 0.00 | 0.00 | 0.00 | 78 | 1019.3 |
| 20260903195508 | 4 | 27 | 0.0 | 0.0 | 0.00 | 0.00 | 0.00 | 77 | 1019.3 |
| 20260903195007 | 4 | 27 | 0.0 | 0.0 | 0.00 | 0.00 | 0.00 | 76 | 1019.3 |
| 20260903194514 | 5 | 27 | 0.0 | 0.0 | 0.00 | 0.00 | 0.00 | 75 | 1019.3 |
| 20260903194008 | 5 | 27 | 0.0 | 0.0 | 0.00 | 0.00 | 0.00 | 75 | 1019.2 |
| 20260903193503 | 5 | 27 | 0.0 | 0.0 | 0.00 | 0.00 | 0.00 | 74 | 1019.3 |
| 20260903193019 | 5 | 27 | 0.0 | 3.2 | 0.00 | 0.00 | 0.00 | 73 | 1019.3 |
| 20260903192504 | 6 | 27 | 0.0 | 3.2 | 0.00 | 0.00 | 0.00 | 73 | 1019.2 |
| 20260903192016 | 6 | 27 | 0.0 | 1.6 | 0.00 | 0.00 | 0.00 | 72 | 1019.2 |
| 20260903191504 | 6 | 27 | 0.0 | 1.6 | 0.00 | 0.00 | 0.00 | 72 | 1019.2 |
| 20260903191006 | 6 | 27 | 0.0 | 1.6 | 0.00 | 0.00 | 0.00 | 71 | 1019.1 |
| 20260903190507 | 6 | 27 | 0.0 | 4.8 | 0.00 | 0.00 | 0.00 | 72 | 1019.2 |
| 20260903190007 | 6 | 27 | 1.6 | 4.8 | 0.00 | 0.00 | 0.00 | 71 | 1019.2 |
| 20260903185503 | 6 | 13 | 0.0 | 4.8 | 0.00 | 0.00 | 0.00 | 71 | 1019.1 |
| 20260903185008 | 6 | 13 | 0.0 | 6.4 | 0.00 | 0.00 | 0.00 | 71 | 1019.1 |
| 20260903184508 | 6 | 18 | 1.6 | 6.4 | 0.00 | 0.00 | 0.00 | 71 | 1019.1 |
| 20260903184009 | 6 | 19 | 1.6 | 8.0 | 0.00 | 0.00 | 0.00 | 71 | 1019.2 |
| 20260903183511 | 6 | 15 | 3.2 | 8.0 | 0.00 | 0.00 | 0.00 | 72 | 1019.1 |
| 20260903183006 | 6 | 355 | 3.2 | 6.4 | 0.00 | 0.00 | 0.00 | 73 | 1019.1 |
| 20260903182513 | 6 | 18 | 0.0 | 6.4 | 0.00 | 0.00 | 0.00 | 73 | 1019.1 |
| 20260903182006 | 6 | 4 | 1.6 | 6.4 | 0.00 | 0.00 | 0.00 | 74 | 1019.1 |
| 20260903181505 | 6 | 33 | 1.6 | 6.4 | 0.00 | 0.00 | 0.00 | 74 | 1019.1 |
| 20260903181013 | 6 | 21 | 1.6 | 6.4 | 0.00 | 0.00 | 0.00 | 74 | 1019.1 |
| 20260903180508 | 6 | 19 | 0.0 | 6.4 | 0.00 | 0.00 | 0.00 | 72 | 1019.1 |
| 20260903180034 | 6 | 13 | 1.6 | 9.7 | 0.00 | 0.00 | 0.00 | 73 | 1019.0 |
| 20260903175510 | 6 | 12 | 3.2 | 9.7 | 0.00 | 0.00 | 0.00 | 72 | 1018.9 |
| 20260903175005 | 7 | 15 | 1.6 | 9.7 | 0.00 | 0.00 | 0.00 | 72 | 1018.9 |
| 20260903174508 | 7 | 10 | 3.2 | 6.4 | 0.00 | 0.00 | 0.00 | 72 | 1019.0 |
| 20260903174008 | 7 | 10 | 0.0 | 6.4 | 0.00 | 0.00 | 0.00 | 72 | 1019.0 |
| 20260903173509 | 7 | 18 | 1.6 | 6.4 | 0.00 | 0.00 | 0.00 | 72 | 1019.1 |
| 20260903173013 | 7 | 9 | 3.2 | 6.4 | 0.00 | 0.00 | 0.00 | 72 | 1019.0 |
| 20260903172504 | 7 | 20 | 3.2 | 6.4 | 0.00 | 0.00 | 0.00 | 72 | 1019.1 |
| 20260903172012 | 7 | 35 | 3.2 | 6.4 | 0.00 | 0.00 | 0.00 | 72 | 1019.1 |
| 20260903171514 | 7 | 18 | 3.2 | 6.4 | 0.00 | 0.00 | 0.00 | 72 | 1019.1 |
| 20260903171004 | 7 | 15 | 3.2 | 6.4 | 0.00 | 0.00 | 0.00 | 72 | 1019.1 |
| 20260903170514 | 7 | 20 | 3.2 | 6.4 | 0.00 | 0.00 | 0.00 | 71 | 1019.2 |
| 20260903170014 | 7 | 15 | 3.2 | 6.4 | 0.00 | 0.00 | 0.00 | 71 | 1019.2 |
| 20260903165517 | 7 | 28 | 3.2 | 6.4 | 0.00 | 0.00 | 0.00 | 72 | 1019.3 |
| 20260903165015 | 7 | 23 | 3.2 | 6.4 | 0.00 | 0.00 | 0.00 | 72 | 1019.4 |
| 20260903164511 | 7 | 26 | 3.2 | 8.0 | 0.00 | 0.00 | 0.00 | 72 | 1019.5 |
| 20260903164015 | 7 | 39 | 3.2 | 8.0 | 0.00 | 0.00 | 0.00 | 73 | 1019.5 |
| 20260903163506 | 7 | 25 | 3.2 | 6.4 | 0.00 | 0.00 | 0.00 | 73 | 1019.5 |
| 20260903163009 | 7 | 35 | 3.2 | 6.4 | 0.00 | 0.00 | 0.00 | 73 | 1019.6 |
| 20260903162507 | 7 | 25 | 3.2 | 8.0 | 0.00 | 0.00 | 0.00 | 73 | 1019.7 |
| 20260903162013 | 7 | 12 | 3.2 | 8.0 | 0.00 | 0.00 | 0.00 | 73 | 1019.8 |
| 20260903161518 | 7 | 18 | 3.2 | 8.0 | 0.00 | 0.00 | 0.00 | 73 | 1019.8 |
| 20260903161009 | 7 | 17 | 3.2 | 8.0 | 0.00 | 0.00 | 0.00 | 73 | 1019.8 |
| 20260903160512 | 7 | 5 | 3.2 | 6.4 | 0.00 | 0.00 | 0.00 | 73 | 1019.8 |
| 20260903160019 | 7 | 6 | 3.2 | 6.4 | 0.00 | 0.00 | 0.00 | 73 | 1019.9 |
| 20260903155514 | 7 | 12 | 3.2 | 8.0 | 0.00 | 0.00 | 0.00 | 74 | 1020.0 |
| 20260903155015 | 7 | 6 | 3.2 | 8.0 | 0.00 | 0.00 | 0.00 | 74 | 1020.0 |
| 20260903154511 | 7 | 17 | 3.2 | 6.4 | 0.00 | 0.00 | 0.00 | 76 | 1020.0 |
| 20260903154017 | 7 | 16 | 3.2 | 6.4 | 0.00 | 0.00 | 0.00 | 77 | 1020.1 |
| 20260903153517 | 7 | 7 | 3.2 | 9.7 | 0.00 | 0.00 | 0.00 | 79 | 1020.1 |
| 20260903153012 | 6 | 354 | 1.6 | 9.7 | 0.00 | 0.00 | 0.00 | 81 | 1020.1 |
| 20260903152517 | 6 | 360 | 1.6 | 4.8 | 0.00 | 0.00 | 0.00 | 82 | 1020.2 |
| 20260903152012 | 6 | 10 | 0.0 | 4.8 | 0.00 | 0.00 | 0.00 | 82 | 1020.3 |
| 20260903151513 | 6 | 10 | 0.0 | 4.8 | 0.00 | 0.00 | 0.00 | 82 | 1020.2 |
| 20260903151011 | 6 | 10 | 0.0 | 0.0 | 0.00 | 0.00 | 0.00 | 82 | 1020.2 |
| 20260903150511 | 6 | 10 | 0.0 | 0.0 | 0.00 | 0.00 | 0.00 | 82 | 1020.2 |
| 20260903150019 | 6 | 10 | 0.0 | 0.0 | 0.00 | 0.00 | 0.00 | 81 | 1020.3 |
| 20260903145517 | 6 | 10 | 0.0 | 0.0 | 0.00 | 0.00 | 0.00 | 81 | 1020.2 |
| 20260903145018 | 6 | 10 | 0.0 | 1.6 | 0.00 | 0.00 | 0.00 | 81 | 1020.2 |
| 20260903144527 | 6 | 10 | 0.0 | 4.8 | 0.00 | 0.00 | 0.00 | 81 | 1020.2 |
| 20260903144011 | 6 | 10 | 0.0 | 6.4 | 0.00 | 0.00 | 0.00 | 81 | 1020.2 |
| 20260903143513 | 6 | 10 | 0.0 | 6.4 | 0.00 | 0.00 | 0.00 | 80 | 1020.3 |
| 20260903143027 | 6 | 22 | 0.0 | 4.8 | 0.00 | 0.00 | 0.00 | 80 | 1020.2 |
| 20260903142513 | 6 | 23 | 3.2 | 4.8 | 0.00 | 0.00 | 0.00 | 78 | 1020.2 |
| 20260903142017 | 6 | 23 | 0.0 | 4.8 | 0.00 | 0.00 | 0.00 | 78 | 1020.2 |
| 20260903141535 | 7 | 23 | 1.6 | 4.8 | 0.00 | 0.00 | 0.00 | 77 | 1020.2 |
| 20260903141018 | 7 | 51 | 0.0 | 4.8 | 0.00 | 0.00 | 0.00 | 77 | 1020.2 |
| 20260903140514 | 7 | 51 | 0.0 | 4.8 | 0.00 | 0.00 | 0.00 | 75 | 1020.3 |
| 20260903140020 | 8 | 78 | 0.0 | 6.4 | 0.00 | 0.00 | 0.00 | 75 | 1020.3 |
| 20260903135510 | 8 | 78 | 0.0 | 6.4 | 0.00 | 0.00 | 0.00 | 75 | 1020.4 |
| 20260903135012 | 8 | 94 | 1.6 | 4.8 | 0.00 | 0.00 | 0.00 | 75 | 1020.3 |
| 20260903134516 | 8 | 108 | 1.6 | 4.8 | 0.00 | 0.00 | 0.00 | 75 | 1020.4 |
| 20260903134014 | 8 | 108 | 1.6 | 4.8 | 0.00 | 0.00 | 0.00 | 75 | 1020.4 |
| 20260903133515 | 8 | 108 | 1.6 | 4.8 | 0.00 | 0.00 | 0.00 | 74 | 1020.5 |
| 20260903133028 | 8 | 108 | 1.6 | 4.8 | 0.00 | 0.00 | 0.00 | 74 | 1020.5 |
| 20260903132515 | 8 | 108 | 1.6 | 6.4 | 0.00 | 0.00 | 0.00 | 74 | 1020.5 |
| 20260903132012 | 8 | 108 | 3.2 | 6.4 | 0.00 | 0.00 | 0.00 | 75 | 1020.6 |
| 20260903131528 | 8 | 116 | 1.6 | 4.8 | 0.00 | 0.00 | 0.00 | 75 | 1020.6 |
| 20260903131018 | 8 | 116 | 3.2 | 4.8 | 0.00 | 0.00 | 0.00 | 75 | 1020.6 |
| 20260903130520 | 8 | 116 | 3.2 | 4.8 | 0.00 | 0.00 | 0.00 | 76 | 1020.6 |
| 20260903130034 | 8 | 116 | 3.2 | 6.4 | 0.00 | 0.00 | 0.00 | 76 | 1020.6 |
| 20260903125514 | 8 | 116 | 3.2 | 6.4 | 0.00 | 0.00 | 0.00 | 76 | 1020.6 |
| 20260903125021 | 8 | 116 | 3.2 | 4.8 | 0.00 | 0.00 | 0.00 | 75 | 1020.7 |
| 20260903124533 | 8 | 116 | 3.2 | 6.4 | 0.00 | 0.00 | 0.00 | 75 | 1020.6 |
| 20260903124016 | 8 | 117 | 1.6 | 6.4 | 0.00 | 0.00 | 0.00 | 74 | 1020.6 |
| 20260903123512 | 8 | 143 | 3.2 | 4.8 | 0.00 | 0.00 | 0.00 | 74 | 1020.6 |
| 20260903123024 | 8 | 147 | 1.6 | 6.4 | 0.00 | 0.00 | 0.00 | 74 | 1020.6 |
| 20260903122516 | 9 | 147 | 3.2 | 6.4 | 0.00 | 0.00 | 0.00 | 74 | 1020.6 |
| 20260903122014 | 8 | 149 | 3.2 | 6.4 | 0.00 | 0.00 | 0.00 | 74 | 1020.5 |
| 20260903121527 | 8 | 142 | 3.2 | 6.4 | 0.00 | 0.00 | 0.00 | 75 | 1020.5 |
| 20260903121012 | 8 | 141 | 3.2 | 12.9 | 0.00 | 0.00 | 0.00 | 75 | 1020.5 |
| 20260903120518 | 8 | 151 | 3.2 | 12.9 | 0.00 | 0.00 | 0.00 | 76 | 1020.4 |
| 20260903120028 | 8 | 120 | 4.8 | 8.0 | 0.00 | 0.00 | 0.00 | 75 | 1020.4 |
| 20260903115519 | 8 | 142 | 1.6 | 6.4 | 0.00 | 0.00 | 0.00 | 73 | 1020.3 |
| 20260903115016 | 9 | 139 | 0.0 | 3.2 | 0.00 | 0.00 | 0.00 | 73 | 1020.3 |
| 20260903114528 | 9 | 133 | 1.6 | 3.2 | 0.00 | 0.00 | 0.00 | 72 | 1020.2 |
| 20260903114021 | 9 | 133 | 1.6 | 3.2 | 0.00 | 0.00 | 0.00 | 72 | 1020.1 |
| 20260903113515 | 10 | 133 | 0.0 | 3.2 | 0.00 | 0.00 | 0.00 | 72 | 1020.0 |
| 20260903113031 | 10 | 133 | 0.0 | 3.2 | 0.00 | 0.00 | 0.00 | 71 | 1019.9 |
| 20260903112518 | 10 | 133 | 0.0 | 4.8 | 0.00 | 0.00 | 0.00 | 71 | 1019.8 |
| 20260903112005 | 10 | 133 | 1.6 | 4.8 | 0.00 | 0.00 | 0.00 | 71 | 1019.8 |
| 20260903111504 | 10 | 133 | 1.6 | 4.8 | 0.00 | 0.00 | 0.00 | 70 | 1020.1 |
| 20260903111004 | 10 | 133 | 1.6 | 4.8 | 0.00 | 0.00 | 0.00 | 70 | 1020.0 |
| 20260903110505 | 10 | 145 | 1.6 | 4.8 | 0.00 | 0.00 | 0.00 | 70 | 1020.0 |
| 20260903110008 | 10 | 145 | 1.6 | 4.8 | 0.00 | 0.00 | 0.00 | 70 | 1019.9 |
| 20260903105503 | 10 | 147 | 0.0 | 3.2 | 0.00 | 0.00 | 0.00 | 69 | 1019.8 |
| 20260903105004 | 10 | 147 | 0.0 | 3.2 | 0.00 | 0.00 | 0.00 | 69 | 1019.8 |
| 20260903104514 | 10 | 147 | 0.0 | 3.2 | 0.00 | 0.00 | 0.00 | 69 | 1019.7 |
| 20260903104005 | 10 | 147 | 0.0 | 3.2 | 0.00 | 0.00 | 0.00 | 69 | 1019.7 |
| 20260903103508 | 10 | 147 | 0.0 | 1.6 | 0.00 | 0.00 | 0.00 | 68 | 1019.6 |
| 20260903103008 | 10 | 147 | 0.0 | 1.6 | 0.00 | 0.00 | 0.00 | 68 | 1019.5 |
| 20260903102504 | 10 | 147 | 0.0 | 1.6 | 0.00 | 0.00 | 0.00 | 68 | 1019.4 |
| 20260903102009 | 10 | 147 | 0.0 | 1.6 | 0.00 | 0.00 | 0.00 | 68 | 1019.2 |
| 20260903101512 | 10 | 147 | 0.0 | 3.2 | 0.00 | 0.00 | 0.00 | 67 | 1019.2 |
| 20260903101004 | 10 | 147 | 0.0 | 4.8 | 0.00 | 0.00 | 0.00 | 67 | 1019.2 |
| 20260903100503 | 10 | 147 | 0.0 | 4.8 | 0.00 | 0.00 | 0.00 | 67 | 1019.1 |
| 20260903100005 | 10 | 147 | 3.2 | 4.8 | 0.00 | 0.00 | 0.00 | 66 | 1019.1 |
| 20260903095504 | 10 | 147 | 3.2 | 4.8 | 0.00 | 0.00 | 0.00 | 67 | 1019.0 |
| 20260903095005 | 10 | 276 | 0.0 | 3.2 | 0.00 | 0.00 | 0.00 | 67 | 1018.9 |
| 20260903094503 | 10 | 276 | 0.0 | 3.2 | 0.00 | 0.00 | 0.00 | 66 | 1018.9 |
| 20260903094006 | 10 | 276 | 1.6 | 4.8 | 0.00 | 0.00 | 0.00 | 66 | 1018.9 |
| 20260903093506 | 10 | 276 | 1.6 | 4.8 | 0.00 | 0.00 | 0.00 | 65 | 1018.7 |
| 20260903093012 | 10 | 266 | 3.2 | 4.8 | 0.00 | 0.00 | 0.00 | 65 | 1018.7 |
| 20260903092507 | 10 | 191 | 0.0 | 3.2 | 0.00 | 0.00 | 0.00 | 66 | 1018.6 |
| 20260903092006 | 10 | 191 | 0.0 | 3.2 | 0.00 | 0.00 | 0.00 | 65 | 1018.6 |
| 20260903091531 | 10 | 191 | 0.0 | 3.2 | 0.00 | 0.00 | 0.00 | 65 | 1018.6 |
| 20260903091006 | 10 | 191 | 0.0 | 3.2 | 0.00 | 0.00 | 0.00 | 64 | 1018.5 |
| 20260903090503 | 11 | 191 | 0.0 | 4.8 | 0.00 | 0.00 | 0.00 | 64 | 1018.4 |
| 20260903090023 | 11 | 191 | 0.0 | 4.8 | 0.00 | 0.00 | 0.00 | 64 | 1018.4 |
| 20260903085505 | 11 | 191 | 1.6 | 6.4 | 0.00 | 0.00 | 0.00 | 63 | 1018.3 |
| 20260903085006 | 11 | 203 | 1.6 | 11.3 | 0.00 | 0.00 | 0.00 | 62 | 1018.1 |
| 20260903084509 | 11 | 233 | 3.2 | 12.9 | 0.00 | 0.00 | 0.00 | 62 | 1018.0 |
| 20260903084004 | 11 | 219 | 4.8 | 12.9 | 0.00 | 0.00 | 0.00 | 63 | 1018.0 |
| 20260903083507 | 11 | 258 | 3.2 | 12.9 | 0.00 | 0.00 | 0.00 | 62 | 1017.8 |
| 20260903083008 | 11 | 253 | 4.8 | 12.9 | 0.00 | 0.00 | 0.00 | 62 | 1017.7 |
| 20260903082508 | 12 | 264 | 3.2 | 11.3 | 0.00 | 0.00 | 0.00 | 61 | 1017.5 |
| 20260903082007 | 12 | 261 | 4.8 | 11.3 | 0.00 | 0.00 | 0.00 | 61 | 1017.4 |
| 20260903081505 | 12 | 249 | 3.2 | 9.7 | 0.00 | 0.00 | 0.00 | 61 | 1017.4 |
| 20260903081018 | 12 | 249 | 3.2 | 12.9 | 0.00 | 0.00 | 0.00 | 61 | 1017.4 |
| 20260903080515 | 12 | 248 | 4.8 | 12.9 | 0.00 | 0.00 | 0.00 | 61 | 1017.3 |
| 20260903080023 | 12 | 250 | 3.2 | 14.5 | 0.00 | 0.00 | 0.00 | 62 | 1017.3 |
| 20260903075513 | 12 | 270 | 4.8 | 14.5 | 0.00 | 0.00 | 0.00 | 62 | 1017.2 |
| 20260903075005 | 12 | 254 | 4.8 | 14.5 | 0.00 | 0.00 | 0.00 | 58 | 1017.1 |
| 20260903074525 | 13 | 248 | 3.2 | 14.5 | 0.00 | 0.00 | 0.00 | 58 | 1016.9 |
| 20260903074011 | 13 | 254 | 4.8 | 17.7 | 0.00 | 0.00 | 0.00 | 58 | 1016.8 |
| 20260903073505 | 13 | 260 | 8.0 | 17.7 | 0.00 | 0.00 | 0.00 | 58 | 1016.7 |
| 20260903073028 | 13 | 275 | 6.4 | 14.5 | 0.00 | 0.00 | 0.00 | 58 | 1016.7 |
| 20260903072506 | 13 | 244 | 6.4 | 14.5 | 0.00 | 0.00 | 0.00 | 58 | 1016.6 |
| 20260903072003 | 13 | 243 | 4.8 | 11.3 | 0.00 | 0.00 | 0.00 | 59 | 1016.4 |
| 20260903071521 | 13 | 263 | 4.8 | 12.9 | 0.00 | 0.00 | 0.00 | 61 | 1016.3 |
| 20260903071007 | 13 | 283 | 8.0 | 12.9 | 0.00 | 0.00 | 0.00 | 61 | 1016.2 |
| 20260903070516 | 13 | 282 | 1.6 | 6.4 | 0.00 | 0.00 | 0.00 | 64 | 1016.0 |
| 20260903070023 | 13 | 289 | 3.2 | 11.3 | 0.00 | 0.00 | 0.00 | 67 | 1016.0 |
| 20260903065509 | 13 | 285 | 3.2 | 14.5 | 0.00 | 0.00 | 0.00 | 69 | 1016.0 |
| 20260903065011 | 14 | 259 | 6.4 | 14.5 | 0.00 | 0.00 | 0.00 | 68 | 1015.8 |
| 20260903064514 | 14 | 293 | 8.0 | 19.3 | 0.00 | 0.00 | 0.00 | 67 | 1015.5 |
| 20260903064012 | 15 | 311 | 12.9 | 19.3 | 0.00 | 0.00 | 0.00 | 65 | 1015.3 |
| 20260903063515 | 15 | 14 | 6.4 | 16.1 | 0.00 | 0.00 | 0.00 | 64 | 1015.3 |
| 20260903063011 | 15 | 322 | 9.7 | 16.1 | 0.00 | 0.00 | 0.00 | 66 | 1015.3 |
| 20260903062516 | 15 | 299 | 8.0 | 16.1 | 0.00 | 0.00 | 0.00 | 71 | 1015.3 |
| 20260903062012 | 14 | 308 | 4.8 | 16.1 | 0.00 | 0.00 | 0.00 | 73 | 1015.3 |
| 20260903061513 | 14 | 320 | 9.7 | 24.1 | 0.00 | 0.00 | 0.00 | 73 | 1015.2 |
| 20260903061015 | 14 | 335 | 9.7 | 24.1 | 0.00 | 0.00 | 0.00 | 72 | 1015.3 |
| 20260903060508 | 13 | 322 | 6.4 | 17.7 | 0.00 | 0.00 | 0.00 | 73 | 1015.3 |
| 20260903060014 | 13 | 35 | 4.8 | 22.5 | 0.00 | 0.00 | 0.00 | 72 | 1015.2 |
| 20260903055513 | 13 | 358 | 8.0 | 22.5 | 0.00 | 0.00 | 0.00 | 72 | 1015.0 |
| 20260903055007 | 13 | 11 | 11.3 | 17.7 | 0.00 | 0.00 | 0.00 | 72 | 1015.1 |
| 20260903054522 | 13 | 13 | 3.2 | 17.7 | 0.00 | 0.00 | 0.00 | 72 | 1015.1 |
| 20260903054013 | 13 | 25 | 9.7 | 19.3 | 0.00 | 0.00 | 0.00 | 72 | 1015.2 |
| 20260903053504 | 13 | 43 | 4.8 | 19.3 | 0.00 | 0.00 | 0.00 | 72 | 1015.2 |
| 20260903053027 | 13 | 318 | 12.9 | 19.3 | 0.00 | 0.00 | 0.00 | 71 | 1015.2 |
| 20260903052510 | 13 | 341 | 8.0 | 16.1 | 0.00 | 0.00 | 0.00 | 72 | 1015.1 |
| 20260903052015 | 13 | 308 | 11.3 | 22.5 | 0.00 | 0.00 | 0.00 | 70 | 1015.1 |
| 20260903051525 | 14 | 315 | 14.5 | 22.5 | 0.00 | 0.00 | 0.00 | 62 | 1015.0 |
| 20260903051010 | 15 | 282 | 11.3 | 22.5 | 0.00 | 0.00 | 0.00 | 58 | 1015.0 |
| 20260903050514 | 15 | 283 | 12.9 | 22.5 | 0.00 | 0.00 | 0.00 | 58 | 1014.7 |
| 20260903050033 | 15 | 280 | 16.1 | 22.5 | 0.00 | 0.00 | 0.00 | 59 | 1014.7 |
| 20260903045510 | 15 | 262 | 8.0 | 27.4 | 0.00 | 0.00 | 0.00 | 62 | 1014.6 |
| 20260903045007 | 14 | 242 | 14.5 | 29.0 | 0.00 | 0.00 | 0.00 | 60 | 1014.8 |
| 20260903044517 | 15 | 233 | 19.3 | 29.0 | 0.00 | 0.00 | 0.00 | 59 | 1014.8 |
| 20260903044010 | 15 | 268 | 12.9 | 27.4 | 0.00 | 0.00 | 0.00 | 59 | 1014.8 |
| 20260903043512 | 15 | 236 | 16.1 | 22.5 | 0.00 | 0.00 | 0.00 | 63 | 1014.7 |
| 20260903043015 | 15 | 237 | 11.3 | 22.5 | 0.00 | 0.00 | 0.00 | 66 | 1014.8 |
| 20260903042518 | 15 | 265 | 8.0 | 17.7 | 0.00 | 0.00 | 0.00 | 69 | 1014.8 |
| 20260903042015 | 14 | 270 | 4.8 | 16.1 | 0.00 | 0.00 | 0.00 | 70 | 1014.7 |
| 20260903041535 | 13 | 235 | 1.6 | 16.1 | 0.00 | 0.00 | 0.00 | 72 | 1014.8 |
| 20260903041015 | 13 | 220 | 3.2 | 16.1 | 0.00 | 0.00 | 0.00 | 73 | 1014.9 |
| 20260903040510 | 13 | 189 | 6.4 | 17.7 | 0.00 | 0.00 | 0.00 | 73 | 1014.9 |
| 20260903040032 | 12 | 219 | 6.4 | 20.9 | 0.00 | 0.00 | 0.00 | 74 | 1014.8 |
| 20260903035514 | 12 | 193 | 12.9 | 32.2 | 0.00 | 0.00 | 0.00 | 74 | 1014.6 |
| 20260903035010 | 12 | 161 | 14.5 | 32.2 | 0.00 | 0.00 | 0.00 | 74 | 1014.6 |
| 20260903034535 | 12 | 100 | 6.4 | 25.7 | 0.00 | 0.00 | 0.00 | 76 | 1014.7 |
| 20260903034009 | 12 | 320 | 4.8 | 14.5 | 0.00 | 0.00 | 0.00 | 76 | 1014.5 |
| 20260903033512 | 12 | 299 | 6.4 | 27.4 | 0.00 | 0.00 | 0.00 | 77 | 1014.3 |
| 20260903033020 | 12 | 93 | 3.2 | 27.4 | 0.00 | 0.00 | 0.00 | 77 | 1013.9 |
| 20260903032514 | 12 | 348 | 8.0 | 29.0 | 0.00 | 0.00 | 0.00 | 77 | 1014.0 |
| 20260903032011 | 12 | 12 | 16.1 | 29.0 | 0.00 | 0.00 | 0.00 | 77 | 1014.0 |
| 20260903031534 | 12 | 6 | 14.5 | 30.6 | 0.00 | 0.00 | 0.00 | 77 | 1013.9 |
| 20260903031016 | 12 | 7 | 12.9 | 30.6 | 0.00 | 0.00 | 0.00 | 77 | 1014.0 |
| 20260903030518 | 12 | 10 | 19.3 | 32.2 | 0.00 | 0.00 | 0.00 | 75 | 1014.0 |
| 20260903030023 | 12 | 9 | 17.7 | 32.2 | 0.00 | 0.00 | 0.00 | 75 | 1013.9 |
| 20260903025515 | 12 | 8 | 17.7 | 29.0 | 0.00 | 0.00 | 0.00 | 74 | 1014.0 |
| 20260903025014 | 12 | 358 | 14.5 | 33.8 | 0.00 | 0.00 | 0.00 | 75 | 1013.9 |
| 20260903024518 | 12 | 9 | 20.9 | 33.8 | 0.00 | 0.00 | 0.00 | 74 | 1013.8 |
| 20260903024019 | 12 | 345 | 17.7 | 30.6 | 0.00 | 0.00 | 0.00 | 75 | 1013.8 |
| 20260903023516 | 12 | 347 | 14.5 | 30.6 | 0.00 | 0.00 | 0.00 | 74 | 1013.9 |
| 20260903023033 | 12 | 8 | 17.7 | 32.2 | 0.00 | 0.00 | 0.00 | 74 | 1014.0 |
| 20260903022519 | 12 | 17 | 16.1 | 32.2 | 0.00 | 0.00 | 0.00 | 74 | 1014.0 |
| 20260903022002 | 13 | 356 | 19.3 | 32.2 | 0.00 | 0.00 | 0.00 | 75 | 1014.1 |
| 20260903021510 | 12 | 343 | 17.7 | 33.8 | 0.00 | 0.00 | 0.00 | 78 | 1014.0 |
| 20260903021007 | 12 | 339 | 22.5 | 33.8 | 0.00 | 0.00 | 0.00 | 77 | 1014.0 |
| 20260903020503 | 12 | 29 | 14.5 | 30.6 | 0.00 | 0.00 | 0.00 | 78 | 1014.1 |
| 20260903020011 | 12 | 13 | 14.5 | 33.8 | 0.00 | 0.00 | 0.00 | 78 | 1014.3 |
| 20260903015503 | 12 | 349 | 14.5 | 35.4 | 0.00 | 0.00 | 0.00 | 78 | 1014.4 |
| 20260903015003 | 12 | 2 | 17.7 | 35.4 | 0.00 | 0.00 | 0.00 | 80 | 1014.3 |
| 20260903014504 | 11 | 352 | 19.3 | 35.4 | 0.00 | 0.00 | 0.00 | 80 | 1014.3 |
| 20260903014004 | 11 | 331 | 20.9 | 35.4 | 0.00 | 0.00 | 0.00 | 79 | 1014.4 |
| 20260903013504 | 11 | 343 | 22.5 | 33.8 | 0.00 | 0.00 | 0.00 | 79 | 1014.5 |
| 20260903013004 | 11 | 358 | 22.5 | 32.2 | 0.00 | 0.00 | 0.00 | 81 | 1014.5 |
| 20260903012503 | 11 | 358 | 19.3 | 35.4 | 0.00 | 0.00 | 0.00 | 81 | 1014.4 |
| 20260903012004 | 10 | 337 | 16.1 | 35.4 | 0.00 | 0.00 | 0.00 | 82 | 1014.5 |
| 20260903011504 | 10 | 338 | 19.3 | 30.6 | 0.00 | 0.00 | 0.00 | 82 | 1014.4 |
| 20260903011004 | 10 | 351 | 17.7 | 30.6 | 0.00 | 0.00 | 0.00 | 82 | 1014.4 |
| 20260903010505 | 10 | 353 | 17.7 | 30.6 | 0.00 | 0.00 | 0.00 | 82 | 1014.3 |
| 20260903010004 | 10 | 337 | 19.3 | 33.8 | 0.00 | 0.00 | 0.00 | 81 | 1014.3 |
| 20260903005503 | 10 | 335 | 24.1 | 33.8 | 0.00 | 0.00 | 0.00 | 79 | 1014.1 |
| 20260903005006 | 10 | 14 | 20.9 | 35.4 | 0.00 | 0.00 | 0.00 | 79 | 1014.0 |
| 20260903004502 | 10 | 339 | 24.1 | 35.4 | 0.00 | 0.00 | 0.00 | 78 | 1014.0 |
| 20260903004004 | 10 | 14 | 19.3 | 35.4 | 0.00 | 0.00 | 0.00 | 79 | 1013.9 |
| 20260903003503 | 10 | 357 | 22.5 | 35.4 | 0.00 | 0.00 | 0.00 | 78 | 1013.9 |
| 20260903003004 | 10 | 354 | 20.9 | 33.8 | 0.00 | 0.00 | 0.00 | 78 | 1013.8 |
| 20260903002507 | 10 | 11 | 16.1 | 33.8 | 0.00 | 0.00 | 0.00 | 78 | 1013.8 |
| 20260903002007 | 10 | 339 | 20.9 | 33.8 | 0.00 | 0.00 | 0.00 | 78 | 1013.6 |
| 20260903001506 | 10 | 7 | 19.3 | 32.2 | 0.00 | 0.00 | 0.00 | 78 | 1013.6 |
| 20260903001004 | 10 | 23 | 17.7 | 29.0 | 0.00 | 0.00 | 0.00 | 79 | 1013.5 |
| 20260903000503 | 10 | 14 | 17.7 | 32.2 | 0.00 | 0.00 | 0.00 | 78 | 1013.5 |
| 20260903000003 | 10 | 333 | 22.5 | 32.2 | 0.00 | 0.00 | 0.00 | 78 | 1013.5 |
| 20260902235503 | 10 | 180 | 20.9 | 32.2 | 0.00 | 0.00 | 0.00 | 77 | 1013.6 |
| 20260902235004 | 10 | 2 | 19.3 | 33.8 | 0.00 | 0.00 | 0.00 | 78 | 1013.5 |
| 20260902234504 | 10 | 318 | 19.3 | 40.2 | 0.00 | 0.00 | 0.00 | 77 | 1013.5 |
| 20260902234008 | 10 | 349 | 19.3 | 40.2 | 0.00 | 0.00 | 0.00 | 77 | 1013.5 |